[Date Prev][Date Next][Thread Prev][Thread Next] - [Date Index][Thread Index][Author Index]

2 Line ISS Keps 9-4



ISS
1 25544U 98067A   03247.37310630  .00017770  00000-0  20503-3 0  4483
2 25544  51.6334 341.4894 0006190 204.4667 230.8610 15.61994199273378


----
Via the sarex mailing list at AMSAT.ORG courtesy of AMSAT-NA.
To unsubscribe, send "unsubscribe sarex" to Majordomo@amsat.org



AMSAT Top AMSAT Home